Springfield, IL

3:12 AM CDT on July 24, 2017 (GMT -0500)
Capital

Weather History for KSPI - April, 2013

Change the Weather History Date:

Thursday, April 11, 2013

  Actual Average Record
Temperature  
Mean Temperature 45 °F 52 °F  
Max Temperature 51 °F 63 °F 90 °F (1930)
Min Temperature 38 °F 41 °F 24 °F (1973)
Degree Days  
Heating Degree Days 20 14  
Month to date heating degree days 155 169  
Since 1 July heating degree days 4972 5151  
Cooling Degree Days 0 0  
Month to date cooling degree days 7 0  
Year to date cooling degree days 7 2  
Moisture  
Dew Point 43 °F    
Average Humidity 88    
Maximum Humidity 100    
Minimum Humidity 76    
Precipitation  
Precipitation 0.07 in 0.11 in 4.45 in (1979)
Month to date precipitation 1.61 1.16  
Year to date precipitation 10.66 7.42  
Snow  
Snow 0.00 in 0.00 in 3.20 in (1940)
Month to date snowfall 0.0 0.2  
Since 1 July snowfall 33.1 20.8  
Snow Depth 0.00 in    
Sea Level Pressure  
Sea Level Pressure 29.66 in    
Wind  
Wind Speed 13 mph (WSW)    
Max Wind Speed 24 mph    
Max Gust Speed 30 mph    
Visibility 8 miles    
Events Rain    
T = Trace of Precipitation, MM = Missing Value Source: NWS Daily Summary

Daily Weather History Graph

Daily Weather History Graph

Search for Another Location

Airport or City:

Trip Planner

Search our weather history database for the weather conditions in past years. The results will help you decide how hot, cold, wet, or windy it might be!

Date:

Astronomy

Apr. 11, 2013 Rise Set
Actual Time 6:26 AM CDT 7:33 PM CDT
Civil Twilight 5:59 AM CDT 8:01 PM CDT
Nautical Twilight 5:25 AM CDT 8:34 PM CDT
Astronomical Twilight 4:51 AM CDT 9:08 PM CDT
Moon 6:58 AM CDT (4/11) 9:07 PM CDT (4/11)
Length of Visible Light 14h 02m
Length of Day
13h 06m
New Moon, 2% of the Moon is Illuminated
Apr 11
New Moon
Apr 18
First Quarter
Apr 25
Full
May 2
Last Quarter
May 9
New

Hourly Weather History & Observations

Time (CDT) Temp. Windchill Dew Point Humidity Pressure Visibility Wind Dir Wind Speed Gust Speed Precip Events Conditions
12:06 AM 48.2 °F - 48.2 °F 100% 29.65 in 10.0 mi East 17.3 mph - 0.01 in Rain Light Rain
12:52 AM 48.9 °F - 48.0 °F 97% 29.68 in 10.0 mi ESE 18.4 mph - 0.01 in   Overcast
1:18 AM 48.2 °F - 48.2 °F 100% 29.68 in 10.0 mi ESE 12.7 mph 19.6 mph N/A   Overcast
1:52 AM 50.0 °F - 48.0 °F 93% 29.68 in 8.0 mi East 9.2 mph - N/A   Overcast
2:45 AM 50.0 °F - 48.2 °F 94% 29.64 in 2.5 mi East 10.4 mph - 0.02 in Rain Light Rain
2:52 AM 50.0 °F - 48.9 °F 96% 29.64 in 3.0 mi East 8.1 mph - 0.02 in Rain Light Rain
3:52 AM 50.0 °F - 48.9 °F 96% 29.62 in 7.0 mi ESE 9.2 mph - 0.01 in   Overcast
4:33 AM 50.0 °F - 50.0 °F 100% 29.61 in 2.0 mi Calm Calm - 0.02 in Rain Light Rain
4:48 AM 50.0 °F - 50.0 °F 100% 29.61 in 3.0 mi Calm Calm - 0.02 in Rain Light Rain
4:52 AM 50.0 °F - 50.0 °F 100% 29.61 in 4.0 mi Calm Calm - 0.02 in   Overcast
5:12 AM 51.8 °F - 50.0 °F 94% 29.63 in 2.0 mi WSW 12.7 mph - 0.01 in Rain Light Rain
5:24 AM 51.8 °F - 50.0 °F 94% 29.64 in 3.0 mi West 12.7 mph - 0.01 in Rain Light Rain
5:33 AM 51.8 °F - 50.0 °F 94% 29.63 in 2.5 mi West 9.2 mph - 0.02 in   Overcast
5:52 AM 51.1 °F - 50.0 °F 96% 29.62 in 7.0 mi West 9.2 mph - 0.02 in   Overcast
6:52 AM 50.0 °F - 48.0 °F 93% 29.64 in 10.0 mi West 12.7 mph - N/A   Overcast
7:02 AM 50.0 °F - 48.2 °F 94% 29.64 in 10.0 mi West 11.5 mph - N/A   Overcast
7:14 AM 48.2 °F - 48.2 °F 100% 29.65 in 10.0 mi West 13.8 mph - N/A   Overcast
7:52 AM 48.9 °F - 46.9 °F 93% 29.67 in 10.0 mi West 18.4 mph - N/A   Overcast
8:09 AM 48.2 °F - 46.4 °F 93% 29.67 in 10.0 mi West 13.8 mph - N/A   Overcast
8:52 AM 48.9 °F - 46.0 °F 90% 29.65 in 10.0 mi West 9.2 mph - N/A   Overcast
9:30 AM 48.2 °F - 44.6 °F 87% 29.64 in 10.0 mi West 12.7 mph - N/A   Overcast
9:52 AM 50.0 °F - 44.6 °F 82% 29.65 in 10.0 mi West 16.1 mph - N/A   Overcast
10:52 AM 50.0 °F - 45.0 °F 83% 29.67 in 10.0 mi WSW 12.7 mph - N/A   Overcast
11:48 AM 48.2 °F - 46.4 °F 93% 29.67 in 10.0 mi SW 9.2 mph - N/A   Overcast
11:52 AM 48.9 °F - 45.0 °F 86% 29.67 in 10.0 mi SW 11.5 mph - N/A   Overcast
12:33 PM 50.0 °F - 44.6 °F 82% 29.68 in 10.0 mi WSW 16.1 mph - N/A   Overcast
12:45 PM 48.2 °F - 44.6 °F 87% 29.67 in 10.0 mi WSW 10.4 mph 20.7 mph N/A   Overcast
12:52 PM 48.9 °F - 44.1 °F 83% 29.68 in 10.0 mi WSW 12.7 mph - N/A   Overcast
1:52 PM 46.9 °F - 43.0 °F 86% 29.67 in 10.0 mi WSW 18.4 mph - N/A   Overcast
2:52 PM 46.9 °F - 42.1 °F 83% 29.66 in 10.0 mi WSW 17.3 mph 24.2 mph N/A   Overcast
3:01 PM 46.4 °F 40.1 °F 42.8 °F 87% 29.65 in 10.0 mi WSW 15.0 mph - N/A   Overcast
3:52 PM 46.0 °F 39.3 °F 39.9 °F 79% 29.66 in 10.0 mi WSW 16.1 mph - N/A   Overcast
4:52 PM 46.9 °F - 39.0 °F 74% 29.66 in 10.0 mi West 15.0 mph - N/A   Overcast
5:01 PM 46.4 °F 38.3 °F 37.4 °F 71% 29.66 in 10.0 mi West 23.0 mph 26.5 mph N/A   Overcast
5:11 PM 44.6 °F 37.2 °F 37.4 °F 76% 29.66 in 10.0 mi West 17.3 mph - N/A   Overcast
5:52 PM 44.1 °F 36.2 °F 37.9 °F 79% 29.68 in 10.0 mi West 18.4 mph - N/A   Overcast
6:52 PM 42.1 °F 34.9 °F 35.1 °F 76% 29.68 in 10.0 mi West 13.8 mph - N/A   Overcast
7:36 PM 41.0 °F 32.5 °F 33.8 °F 76% 29.68 in 10.0 mi West 17.3 mph 29.9 mph N/A   Overcast
7:52 PM 39.9 °F 31.1 °F 32.0 °F 73% 29.68 in 10.0 mi West 17.3 mph - N/A   Overcast
8:00 PM 39.2 °F 30.5 °F 32.0 °F 75% 29.68 in 10.0 mi West 16.1 mph - N/A   Overcast
8:52 PM 39.9 °F 31.1 °F 34.0 °F 79% 29.70 in 10.0 mi WSW 17.3 mph 24.2 mph N/A   Overcast
9:52 PM 39.0 °F 30.3 °F 32.0 °F 76% 29.72 in 10.0 mi West 16.1 mph - N/A   Overcast
10:52 PM 39.0 °F 30.6 °F 32.0 °F 76% 29.71 in 10.0 mi West 15.0 mph - N/A   Overcast
11:52 PM 37.9 °F 30.5 °F 32.0 °F 79% 29.71 in 10.0 mi WSW 11.5 mph - N/A   Overcast